[TLELIST] Archives

 

[list_settings.list_name] Current TLEs

September 8th 2022 PST

HST 1 20580U 90037B 22250.59871602 .00002250 00000-0 12122-3 0 9993 2 20580 28.4713 344.3872 0002437 193.8636 185.2146 15.10830791578658 ISS (ZARYA) 1 25544U 98067A 22251.37470296 .00007485 00000-0 13854-3 0 9998 2 25544 51.6440 284.4621 0002672 206.7136 275.0290 15.50096209358087 CXO 1 25867U 99040B 22252.67504961 .00000830 00000-0 00000+0 0 9991 2 25867 43.0419 228.1551 8897674 238.5111 1.3977 0.37811157 23279 ____________________________________________________________________ These 2-Line ...Continue Reading

[list_settings.list_name] Current TLEs

September 7th 2022 PST

HST 1 20580U 90037B 22249.69838118 .00002211 00000-0 11895-3 0 9990 2 20580 28.4709 350.3549 0002503 185.0606 327.3954 15.10826341578512 ISS (ZARYA) 1 25544U 98067A 22250.34048329 .00007636 00000-0 14125-3 0 9992 2 25544 51.6443 289.5877 0002699 202.4386 264.2188 15.50080382357921 CXO 1 25867U 99040B 22252.67504961 .00000830 00000-0 00000+0 0 9991 2 25867 43.0419 228.1551 8897674 238.5111 1.3977 0.37811157 23279 ____________________________________________________________________ These 2-Line ...Continue Reading

[list_settings.list_name] Current TLEs

September 6th 2022 PST

HST 1 20580U 90037B 22248.70667608 .00002154 00000-0 11557-3 0 9996 2 20580 28.4709 356.9280 0002549 174.7282 333.1722 15.10822235578360 ISS (ZARYA) 1 25544U 98067A 22249.43420756 .00006728 00000-0 12548-3 0 9996 2 25544 51.6439 294.0783 0002897 202.5048 243.5487 15.50062303357788 CXO 1 25867U 99040B 22250.02749846 .00000904 00000-0 00000+0 0 9993 2 25867 43.0916 228.3559 8894659 238.3908 0.8819 0.37815168 23267 ____________________________________________________________________ These 2-Line ...Continue Reading

[list_settings.list_name] Current TLEs

September 5th 2022 PST

HST 1 20580U 90037B 22247.71508269 .00001974 00000-0 10503-3 0 9992 2 20580 28.4709 3.5008 0002606 164.2287 339.7378 15.10817597578214 ISS (ZARYA) 1 25544U 98067A 22248.34085639 .00005343 00000-0 10138-3 0 9997 2 25544 51.6440 299.4958 0002931 196.6239 264.2700 15.50041105357614 CXO 1 25867U 99040B 22250.02749846 .00000904 00000-0 00000+0 0 9993 2 25867 43.0916 228.3559 8894659 238.3908 0.8819 0.37815168 23267 ____________________________________________________________________ These 2-Line ...Continue Reading

[list_settings.list_name] Current TLEs

September 4th 2022 PST

HST 1 20580U 90037B 22246.72349144 .00001747 00000-0 91717-4 0 9992 2 20580 28.4709 10.0735 0002641 153.6463 346.4161 15.10813221578069 ISS (ZARYA) 1 25544U 98067A 22247.37406610 .00004024 00000-0 78372-4 0 9995 2 25544 51.6441 304.2857 0002903 192.5040 270.0009 15.50025069357463 CXO 1 25867U 99040B 22247.38342539 .00000889 00000-0 00000-0 0 9999 2 25867 43.1655 228.5895 8891671 238.2483 0.8427 0.37811963 12094 ____________________________________________________________________ These 2-Line ...Continue Reading

[list_settings.list_name] Current TLEs

September 3rd 2022 PST

HST 1 20580U 90037B 22245.73189736 .00001677 00000-0 87640-4 0 9993 2 20580 28.4709 16.6461 0002680 143.4463 352.7137 15.10810123577911 ISS (ZARYA) 1 25544U 98067A 22246.40820775 .00002437 00000-0 50635-4 0 9998 2 25544 51.6446 309.0776 0002654 187.8555 281.5148 15.50012426357310 CXO 1 25867U 99040B 22247.38342539 .00000889 00000-0 00000-0 0 9999 2 25867 43.1655 228.5895 8891671 238.2483 0.8427 0.37811963 12094 ____________________________________________________________________ These 2-Line ...Continue Reading

[list_settings.list_name] Current TLEs

September 2nd 2022 PST

HST 1 20580U 90037B 22244.80978684 .00001387 00000-0 70613-4 0 9998 2 20580 28.4708 22.7579 0002714 134.2853 16.6452 15.10806028577776 ISS (ZARYA) 1 25544U 98067A 22245.45543981 .00005772 00000-0 10899-3 0 9995 2 25544 51.6440 313.7893 0003073 186.6125 2.7807 15.50012657357166 CXO 1 25867U 99040B 22247.38342539 .00000889 00000-0 00000-0 0 9999 2 25867 43.1655 228.5895 8891671 238.2483 0.8427 0.37811963 12094 ____________________________________________________________________ These 2-Line ...Continue Reading

[list_settings.list_name] Current TLEs

September 1st 2022 PST

HST 1 20580U 90037B 22243.74878847 .00001417 00000-0 72392-4 0 9990 2 20580 28.4707 29.7907 0002740 123.4159 5.4010 15.10803559577610 ISS (ZARYA) 1 25544U 98067A 22244.40376294 .00006225 00000-0 11695-3 0 9999 2 25544 51.6446 318.9988 0003043 184.2862 252.8547 15.50001403357002 CXO 1 25867U 99040B 22244.74018785 .00000892 00000-0 00000-0 0 9993 2 25867 43.2313 228.7865 8890310 238.1394 0.9117 0.37814423 12084 ____________________________________________________________________ These 2-Line ...Continue Reading

[list_settings.list_name] Current TLEs

August 31st 2022 PST

HST 1 20580U 90037B 22242.82729463 .00001422 00000-0 72719-4 0 9996 2 20580 28.4707 35.8988 0002758 114.0393 32.9300 15.10801451577472 ISS (ZARYA) 1 25544U 98067A 22243.04632396 .00006691 00000-0 12518-3 0 9998 2 25544 51.6458 325.7214 0003207 179.4906 238.1812 15.49984885356799 CXO 1 25867U 99040B 22244.74018785 .00000892 00000-0 00000-0 0 9993 2 25867 43.2313 228.7865 8890310 238.1394 0.9117 0.37814423 12084 ____________________________________________________________________ These 2-Line ...Continue Reading

[list_settings.list_name] Current TLEs

August 30th 2022 PST

HST 1 20580U 90037B 22242.17039229 .00001354 00000-0 68677-4 0 9990 2 20580 28.4706 40.2530 0002761 107.1534 59.9107 15.10799510577643 ISS (ZARYA) 1 25544U 98067A 22242.34726303 .00006689 00000-0 12518-3 0 9999 2 25544 51.6458 329.1856 0003208 176.8999 297.4857 15.49974881356683 CXO 1 25867U 99040B 22242.09491989 .00000927 00000-0 00000-0 0 9999 2 25867 43.3137 229.0348 8891186 237.9851 0.7551 0.37816799 12073 ____________________________________________________________________ These 2-Line ...Continue Reading
  • This mailing list is a public mailing list - anyone may join or leave, at any time.
  • This mailing list is announce-only.

International Space Station (ISS) / Hubble Space Telescope (HST) / Chandra X-Ray Observatory Orbital Data via EMAIL

Privacy Policy:

Private list